Temp
22 21 21 22 22 22 23 24 23 22 21 20 20 20 20 20 21 21 21 20 21 21
23 23 22 22 22 22 23 23 23 22 21 21 21 20 20 21 21 21 20 20 20 20
22 24 23 22 22 22 22 22 23 22 21 20 20 20 20 21 21 21 20 20 20 20
23 22 24 22 22 22 22 22 22 21 20 20 20 20 20 20 20 20 20 20 20 20
24 23 23 22 22 22 22 22 21 22 23 22 21 20 20 20 20 20 20 20 20 20
26 25 24 24 23 23 22 22 22 22 24 24 23 21 20 20 20 20 19 19 19 19
27 26 26 25 25 24 23 22 22 22 23 23 21 20 20 20 20 20 19 19 19 19
28 27 27 26 25 25 24 23 24 24 22 21 21 21 21 20 20 20 19 19 18 20
28 27 27 26 26 25 24 23 25 23 21 21 21 22 21 21 21 20 20 19 18 18
27 26 26 26 25 25 25 25 24 23 21 24 25 25 24 22 21 21 19 18 18 18
26 26 26 25 24 24 24 25 26 25 26 25 24 22 22 22 22 21 20 19 18 18
26 25 25 25 23 24 24 25 25 27 27 25 24 21 21 22 21 20 19 18 17 17
23 23 22 22 21 22 23 22 25 25 23 24 23 20 19 20 20 19 19 18 18 17
22 22 21 21 21 21 22 20 21 20 22 20 22 20 19 20 20 19 19 19 19 18
Height
1524 1527 1530 1533 1536 1538 1541 1543 1545 1544 1548 1549 1551 1552 1552 1551 1552 1550 1549 1547 1546 1545
1518 1521 1526 1529 1531 1534 1538 1541 1543 1545 1546 1547 1549 1550 1550 1550 1551 1551 1549 1549 1547 1547
1513 1517 1520 1524 1527 1531 1534 1536 1539 1541 1543 1545 1547 1547 1546 1547 1548 1546 1546 1546 1545 1545
1510 1512 1515 1519 1522 1525 1530 1532 1534 1537 1539 1541 1542 1544 1545 1546 1546 1545 1544 1543 1541 1541
1505 1508 1511 1513 1517 1520 1523 1528 1530 1532 1534 1536 1538 1540 1541 1542 1544 1544 1542 1541 1539 1539
1499 1503 1506 1510 1513 1517 1519 1522 1527 1527 1528 1530 1532 1534 1536 1537 1537 1537 1538 1538 1538 1539
1492 1496 1500 1504 1509 1513 1514 1516 1519 1522 1523 1525 1528 1531 1532 1534 1534 1532 1531 1530 1531 1532
1484 1488 1492 1496 1501 1506 1510 1511 1514 1517 1520 1524 1526 1527 1527 1527 1528 1528 1527 1527 1526 1527
1479 1483 1487 1489 1491 1496 1501 1504 1506 1511 1515 1518 1519 1517 1514 1517 1520 1521 1522 1523 1522 1523
1470 1473 1478 1482 1485 1488 1491 1497 1500 1502 1504 1502 1499 1495 1494 1504 1513 1517 1516 1517 1519 1520
1462 1465 1469 1473 1477 1480 1484 1487 1489 1492 1493 1496 1499 1496 1495 1492 1502 1509 1511 1513 1513 1515
1453 1457 1459 1462 1465 1469 1474 1477 1479 1484 1486 1491 1491 1494 1495 1493 1498 1502 1508 1510 1510 1510
1442 1448 1453 1458 1461 1462 1468 1473 1478 1480 1483 1481 1484 1490 1492 1496 1499 1504 1509 1509 1506 1504
1435 1439 1446 1451 1456 1460 1464 1469 1475 1478 1479 1480 1477 1482 1486 1493 1495 1494 1501 1508 1504 1501
Wind_Speed
28 24 21 20 17 14 14 13 13 14 13 11 10 10 9 7 8 7 10 8 9 7
28 27 23 22 19 18 17 14 14 14 12 12 11 11 11 9 10 11 12 9 14 9
28 28 26 25 23 19 18 20 14 18 15 13 13 13 13 11 11 14 11 12 12 12
27 26 27 24 23 25 19 20 21 22 16 15 15 15 15 13 14 14 14 14 14 11
29 28 25 26 25 22 22 20 22 20 21 20 18 16 15 14 14 14 16 14 12 6
29 29 28 26 25 23 23 21 18 19 20 20 19 18 15 15 16 12 14 12 11 6
32 31 29 28 26 24 25 24 22 22 20 18 17 15 14 14 15 15 12 14 11 11
36 34 33 32 31 28 25 25 23 21 20 15 12 12 15 14 16 13 14 12 12 10
38 37 36 36 37 36 32 31 24 20 16 14 12 17 20 20 13 12 14 12 12 13
40 42 43 39 39 38 37 33 29 23 22 24 22 18 17 15 16 12 12 13 12 12
40 44 46 44 40 40 39 37 34 30 29 25 23 22 20 17 16 12 14 12 12 13
45 48 48 48 45 45 43 39 38 35 32 24 25 23 19 17 9 13 12 13 14 13
39 42 38 38 39 42 40 39 37 37 32 30 21 16 11 5 5 5 10 14 15 18
33 35 35 35 37 36 37 33 38 35 30 24 23 18 7 8 10 12 10 13 16 16
Wind_Direction
219 220 224 226 215 221 213 216 214 230 215 229 231 247 249 261 287 271 283 265 268 267
221 218 219 219 229 215 218 215 219 220 219 227 235 241 240 261 266 268 283 281 295 307
215 222 217 222 216 223 218 220 208 226 222 227 235 245 250 251 276 277 274 275 273 278
215 218 222 218 224 218 218 221 230 219 224 228 233 239 255 260 261 269 274 280 277 276
214 215 218 219 222 222 224 222 227 237 238 244 242 241 249 258 260 277 281 280 275 258
215 216 216 222 219 224 226 224 219 238 239 244 247 249 247 254 271 260 274 270 271 251
213 216 218 218 221 218 224 229 218 220 241 243 239 241 247 255 268 268 250 254 250 241
216 215 218 220 216 216 215 229 232 227 221 230 237 252 255 253 258 259 255 254 239 266
220 219 218 219 222 216 209 215 228 218 209 211 225 235 245 239 231 248 266 235 243 238
221 221 219 217 221 221 218 217 220 210 202 227 231 227 229 238 236 248 243 237 235 243
220 222 222 216 214 219 218 218 213 212 229 232 235 223 222 214 221 228 232 233 236 240
228 225 227 223 214 219 221 216 210 220 226 217 230 227 222 216 239 219 229 235 236 241
224 224 218 214 208 213 219 211 211 213 208 216 227 215 209 237 217 228 249 256 261 265
222 216 214 210 209 208 209 199 201 204 200 219 219 219 233 266 244 196 237 260 269 261